1313625633984,3.50718
1313625693984,3.52307
1313625753984,3.51313
1313625813984,3.51743
1313625873984,3.51774
1313625933984,3.52263
1313625993984,3.51395
1313626053984,3.50587
1313626113984,3.51324
1313626173984,3.51082
1313626233984,3.53562
1313626293984,3.53652
1313626353984,3.51097
1313626413984,3.52033
1313626473984,3.49329
1313626533984,3.49711
1313626593984,3.49096
1313626653984,3.52087
1313626713984,3.51063
1313626773984,3.54638
1313626833984,3.52396
1313626893984,3.52578
1313626953984,3.53292
1313627013984,3.52301
1313627073984,3.53817
1313627133984,3.54655
1313627193984,3.59232
1313627253984,3.62784
1313627313984,3.67384
1313627373984,3.67351
1313627433984,3.78129
1313627493984,3.73599
1313627553984,3.71556
1313627613984,3.70007
1313627673984,3.62018
1313627733984,3.61773
1313627793984,3.55703
1313627853984,3.54413
1313627913984,3.54507
1313627973984,3.54459
1313628033984,3.53852
1313628093984,3.52330
1313628153984,3.53872
1313628213984,3.54467
1313628273984,3.54760
1313628333984,3.53461
1313628393984,3.56017
1313628453984,3.53457
1313628513984,3.56463
1313628573984,3.54173
1313628633984,3.52100
1313628693984,3.53978
1313628753984,3.53879
1313628813984,3.55540
1313628873984,3.55329
1313628933984,3.58340
1313628993984,3.53895
1313629053984,3.54461
1313629113984,3.51223
1313629173984,3.53999
1313629233994,3.54117
1313629293994,3.52684
1313629353994,3.52657
1313629413994,3.54880
1313629473994,3.50777
1313629533994,3.50349
1313629593994,3.54147
1313629653994,3.53927
1313629713994,3.54995
1313629773994,3.53138
1313629833994,3.51089
1313629893994,3.49948
1313629953994,3.53469
1313630013994,3.53629
1313630073994,3.56321
1313630133994,3.52552
1313630193994,3.54327
1313630253994,3.52451
1313630313994,3.53154
1313630373994,3.52666
1313630433994,3.54868
1313630493994,3.53467
1313630553994,3.53872
1313630613994,3.56539
1313630673994,3.53223
1313630733994,3.56325
1313630793994,3.50252
1313630853994,3.53171
1313630913994,3.51208
1313630973994,3.54131
1313631033994,3.53552
1313631093994,3.55655
1313631153994,3.54555
1313631213994,3.56218
1313631273994,3.53385
1313631333994,3.52188
1313631393994,3.53737
1313631453994,3.53372
1313631513994,3.56963
1313631573994,3.53187
1313631633994,3.53779
1313631693994,3.53301
1313631753994,3.51805
1313631813994,3.56852
1313631873994,3.53718
1313631933994,3.52014
1313631993994,3.51220
1313632053994,3.51936
1313632113994,3.51695
1313632173994,3.52810
1313632233994,3.54746
1313632293994,3.51399
1313632353994,3.50868
1313632413994,3.52743
1313632473994,3.53334
1313632533994,3.52595
1313632593994,3.52459
1313632653994,3.51860
1313632713994,3.50913
1313632773994,3.51556
1313632834004,3.55067
1313632894004,3.50091
1313632954004,3.54229
1313633014004,3.53201
1313633074004,3.54099
1313633134004,3.54555
1313633194004,3.57857
1313633254004,3.53466
1313633314004,3.51954
1313633374004,3.54936
1313633434004,3.53957
1313633494004,3.52444
1313633554004,3.52833
1313633614004,3.50321
1313633674004,3.51193
1313633734004,3.51881
1313633794004,3.51181
1313633854004,3.52586
1313633914004,3.53043
1313633974004,3.52781
1313634034004,3.53478
1313634094004,3.53430
1313634154004,3.54991
1313634214004,3.52416
1313634274004,3.52614
1313634334004,3.53536
1313634394004,3.50397
1313634454004,3.57126
1313634514004,3.57701
1313634574004,3.55155
1313634634004,3.53475
1313634694004,3.53662
1313634754004,3.53726
1313634814004,3.50351
1313634874004,3.56473
1313634934004,3.54928
1313634994004,3.52498
1313635054004,3.52801
1313635114004,3.51407
1313635174004,3.53714
1313635234004,3.50119
1313635294004,3.53655
1313635354004,3.53085
1313635414004,3.53995
1313635474004,3.53994
1313635534004,3.51863
1313635594004,3.53392
1313635654004,3.51459
1313635714004,3.54532
1313635774004,3.53071
1313635834004,3.54270
1313635894004,3.51866
1313635954004,3.50979
1313636014004,3.50904
1313636074004,3.53648
1313636134004,3.52303
1313636194004,3.57006
1313636254004,3.53616
1313636314004,3.51198
1313636374004,3.51630
1313636434013,3.54520
1313636494013,3.51792
1313636554013,3.52559
1313636614013,3.52639
1313636674013,3.52102
1313636734013,3.53935
1313636794013,3.49471
1313636854013,3.50851
1313636914013,3.52196
1313636974013,3.53231
1313637034013,3.52779
1313637094013,3.51008
1313637154013,3.54059
1313637214013,3.51012
1313637274013,3.54802
1313637334013,3.50869
1313637394013,3.50080
1313637454013,3.50174
1313637514013,3.49882
1313637574013,3.51562
1313637634013,3.51873
1313637694013,3.50727
1313637754013,3.50975
1313637814013,3.51083
1313637874013,3.52015
1313637934013,3.50258
1313637994013,3.51492
1313638054013,3.51505
1313638114013,3.47324
1313638174013,3.49444
1313638234013,3.50042
1313638294013,3.52570
1313638354013,3.50659
1313638414013,3.50931
1313638474013,3.52350
1313638534013,3.53630
1313638594013,3.46402
1313638654013,3.50990
1313638714013,3.51998
1313638774013,3.51000
1313638834013,3.50642
1313638894013,3.47018
1313638954013,3.51245
1313639014013,3.50831
1313639074013,3.49092
1313639134013,3.48937
1313639194013,3.49560
1313639254013,3.52648
1313639314013,3.51636
1313639374013,3.55527
1313639434013,3.51261
1313639494013,3.54712
1313639554013,3.51367
1313639614013,3.50735
1313639674013,3.54707
1313639734013,3.52408
1313639794013,3.54820
1313639854013,3.54902
1313639914013,3.54687
1313639974013,3.54563
1313640034022,3.53093
1313640094022,3.56486
1313640154022,3.54586
1313640214022,3.53422
1313640274022,3.52278
1313640334022,3.54930
1313640394022,3.52088
1313640454022,3.53217
1313640514022,3.49224
1313640574022,3.52086
1313640634022,3.50688
1313640694022,3.51573
1313640754022,3.52756
1313640814022,3.51180
1313640874022,3.51283
1313640934022,3.48825
1313640994022,3.53522
1313641054022,3.52367
1313641114022,3.49809
1313641174022,3.50650
1313641234022,3.51526
1313641294022,3.49490
1313641354022,3.50060
1313641414022,3.53357
1313641474022,3.52624
1313641534022,3.51778
1313641594022,3.51193
1313641654022,3.49810
1313641714022,3.50065
1313641774022,3.51773
1313641834022,3.51167
1313641894022,3.47918
1313641954022,3.50814
1313642014022,3.51701
1313642074022,3.51256
1313642134022,3.53211
1313642194022,3.52964
1313642254022,3.51100
1313642314022,3.48837
1313642374022,3.53167
1313642434022,3.53455
1313642494022,3.53278
1313642554022,3.53869
1313642614022,3.51369
1313642674022,3.55181
1313642734022,3.50201
1313642794022,3.52320
1313642854022,3.49879
1313642914022,3.50653
1313642974022,3.48196
1313643034022,3.52307
1313643094022,3.49706
1313643154022,3.51664
1313643214022,3.51583
1313643274022,3.49207
1313643334022,3.49713
1313643394022,3.53870
1313643454022,3.53524
1313643514022,3.50798
1313643574022,3.51587
1313643634031,3.50968
1313643694031,3.51637
1313643754031,3.54397
1313643814031,3.53368
1313643874031,3.51815
1313643934031,3.51234
1313643994031,3.52113
1313644054031,3.49902
1313644114031,3.53323
1313644174031,3.52211
1313644234031,3.52246
1313644294031,3.49835
1313644354031,3.56377
1313644414031,3.53498
1313644474031,3.49821
1313644534031,3.50536
1313644594031,3.52113
1313644654031,3.50508
1313644714031,3.52459
1313644774031,3.53686
1313644834031,3.52291
1313644894031,3.52773
1313644954031,3.49712
1313645014031,3.52620
1313645074031,3.50178
1313645134031,3.53169
1313645194031,3.52241
1313645254031,3.53576
1313645314031,3.54418
1313645374031,3.53941
1313645434031,3.55214
1313645494031,3.53219
1313645554031,3.51360
1313645614031,3.53279
1313645674031,3.49331
1313645734031,3.52794
1313645794031,3.52014
1313645854031,3.54294
1313645914031,3.55563
1313645974031,3.54085
1313646034031,3.51066
1313646094031,3.53962
1313646154031,3.53008
1313646214031,3.53734
1313646274031,3.53927
1313646334031,3.50918
1313646394031,3.53150
1313646454031,3.53459
1313646514031,3.53721
1313646574031,3.51918
1313646634031,3.51368
1313646694031,3.50517
1313646754031,3.52189
1313646814031,3.52821
1313646874031,3.51100
1313646934031,3.52935
1313646994031,3.54284
1313647054031,3.51747
1313647114031,3.51220
1313647174031,3.54435
1313647234041,3.50238
1313647294041,3.48151
1313647354041,3.54336
1313647414041,3.51127
1313647474041,3.50588
1313647534041,3.52282
1313647594041,3.53104
1313647654041,3.51002
1313647714041,3.51029
1313647774041,3.51406
1313647834041,3.51295
1313647894041,3.52664
1313647954041,3.52424
1313648014041,3.50049
1313648074041,3.50622
1313648134041,3.48919
1313648194041,3.51444
1313648254041,3.54234
1313648314041,3.50913
1313648374041,3.53036
1313648434041,3.45648
1313648494041,3.54436
1313648554041,3.55161
1313648614041,3.49316
1313648674041,3.51312
1313648734041,3.49113
1313648794041,3.52214
1313648854041,3.49644
1313648914041,3.48059
1313648974041,3.52729
1313649034041,3.52150
1313649094041,3.51331
1313649154041,3.50986
1313649214041,3.51484
1313649274041,3.52579
1313649334041,3.50898
1313649394041,3.51665
1313649454041,3.51689
1313649514041,3.51171
1313649574041,3.50198
1313649634041,3.52087
1313649694041,3.49553
1313649754041,3.51609
1313649814041,3.59128
1313649874041,3.67674
1313649934041,3.64670
1313649994041,3.62812
1313650054041,3.61004
1313650114041,3.61708
1313650174041,3.63301
1313650234041,3.58399
1313650294041,3.57644
1313650354041,3.56805
1313650414041,3.54168
1313650474041,3.55984
1313650534041,3.53791
1313650594041,3.55065
1313650654041,3.54292
1313650714041,3.58805
1313650774041,3.55991
1313650834050,3.55713
1313650894050,3.50813
1313650954050,3.53043
1313651014050,3.53160
1313651074050,3.54948
1313651134050,3.51277
1313651194050,3.55488
1313651254050,3.51750
1313651314050,3.53170
1313651374050,3.50311
1313651434050,3.51808
1313651494050,3.52999
1313651554050,3.54323
1313651614050,3.53318
1313651674050,3.54354
1313651734050,3.51656
1313651794050,3.52255
1313651854050,3.50002
1313651914050,3.54961
1313651974050,3.56737
1313652034050,3.51426
1313652094050,3.52643
1313652154050,3.55968
1313652214050,3.52444
1313652274050,3.52719
1313652334050,3.53821
1313652394050,3.55435
1313652454050,3.54316
1313652514050,3.53006
1313652574050,3.53442
1313652634050,3.55703
1313652694050,3.50778
1313652754050,3.54579
1313652814050,3.55993
1313652874050,3.54367
1313652934050,3.55075
1313652994050,3.52017
1313653054050,3.53691
1313653114050,3.55263
1313653174050,3.52677
1313653234050,3.55944
1313653294050,3.50074
1313653354050,3.54415
1313653414050,3.50214
1313653474050,3.52983
1313653534050,3.52923
1313653594050,3.54477
1313653654050,3.51720
1313653714050,3.54025
1313653774050,3.55902
1313653834050,3.54060
1313653894050,3.52325
1313653954050,3.53280
1313654014050,3.50854
1313654074050,3.52402
1313654134050,3.53652
1313654194050,3.53387
1313654254050,3.51246
1313654314050,3.53427
1313654374050,3.54207
1313654434060,3.52906
1313654494060,3.54793
1313654554060,3.54707
1313654614060,3.51473
1313654674060,3.52154
1313654734060,3.52439
1313654794060,3.51410
1313654854060,3.53395
1313654914060,3.52706
1313654974060,3.51008
1313655034060,3.51515
1313655094060,3.53582
1313655154060,3.52294
1313655214060,3.53460
1313655274060,3.51378
1313655334060,3.57584
1313655394060,3.52621
1313655454060,3.54905
1313655514060,3.53509
1313655574060,3.54636
1313655634060,3.54131
1313655694060,3.52161
1313655754060,3.51160
1313655814060,3.54657
1313655874060,3.56445
1313655934060,3.50757
1313655994060,3.54328
1313656054060,3.53191
1313656114060,3.53146
1313656174060,3.54636
1313656234060,3.55393
1313656294060,3.52934
1313656354060,3.55891
1313656414060,3.52614
1313656474060,3.55364
1313656534060,3.55126
1313656594060,3.56044
1313656654060,3.52852
1313656714060,3.50119
1313656774060,3.54017
1313656834060,3.54272
1313656894060,3.55834
1313656954060,3.56856
1313657014060,3.53941
1313657074060,3.55753
1313657134060,3.52976
1313657194060,3.53943
1313657254060,3.52179
1313657314060,3.56133
1313657374060,3.54127
1313657434060,3.57898
1313657494060,3.56102
1313657554060,3.54404
1313657614060,3.53226
1313657674060,3.55914
1313657734060,3.53112
1313657794060,3.56527
1313657854060,3.55084
1313657914060,3.54960
1313657974060,3.54378
1313658034069,3.55765
1313658094069,3.53299
1313658154069,3.56226
1313658214069,3.55383
1313658274069,3.56780
1313658334069,3.58593
1313658394069,3.56347
1313658454069,3.57950
1313658514069,3.56615
1313658574069,3.52824
1313658634069,3.55205
1313658694069,3.52928
1313658754069,3.54355
1313658814069,3.54377
1313658874069,3.52362
1313658934069,3.52588
1313658994069,3.54248
1313659054069,3.56128
1313659114069,3.56090
1313659174069,3.56858
1313659234069,3.57342
1313659294069,3.55652
1313659354069,3.53483
1313659414069,3.54546
1313659474069,3.53745
1313659534069,3.50624
1313659594069,3.54980
1313659654069,3.58357
1313659714069,3.56059
1313659774069,3.53252
1313659834069,3.56709
1313659894069,3.52853
1313659954069,3.56086
1313660014069,3.56827
1313660074069,3.56712
1313660134069,3.55931
1313660194069,3.51424
1313660254069,3.56519
1313660314069,3.56090
1313660374069,3.56591
1313660434069,3.52766
1313660494069,3.56674
1313660554069,3.58833
1313660614069,3.57115
1313660674069,3.54322
1313660734069,3.51620
1313660794069,3.54214
1313660854069,3.52297
1313660914069,3.53350
1313660974069,3.56840
1313661034069,3.57093
1313661094069,3.54630
1313661154069,3.57197
1313661214069,3.57894
1313661274069,3.56471
1313661334069,3.55667
1313661394069,3.59004
1313661454069,3.57796
1313661514069,3.58696
1313661574069,3.54900
1313661634079,3.54122
1313661694079,3.58089
1313661754079,3.57663
1313661814079,3.55566
1313661874079,3.55999
1313661934079,3.59599
1313661994079,3.52685
1313662054079,3.56490
1313662114079,3.54622
1313662174079,3.58058
1313662234079,3.54660
1313662294079,3.57603
1313662354079,3.56921
1313662414079,3.57961
1313662474079,3.56490
1313662534079,3.56481
1313662594079,3.58222
1313662654079,3.56091
1313662714079,3.56815
1313662774079,3.56086
1313662834079,3.56778
1313662894079,3.55527
1313662954079,3.58634
1313663014079,3.56575
1313663074079,3.57827
1313663134079,3.56115
1313663194079,3.55576
1313663254079,3.60711
1313663314079,3.57835
1313663374079,3.57572
1313663434079,3.55394
1313663494079,3.52637
1313663554079,3.55110
1313663614079,3.54301
1313663674079,3.57158
1313663734079,3.55672
1313663794079,3.53134
1313663854079,3.58141
1313663914079,3.56917
1313663974079,3.57537
1313664034079,3.54971
1313664094079,3.54777
1313664154079,3.53420
1313664214079,3.56763
1313664274079,3.54699
1313664334079,3.54601
1313664394079,3.53886
1313664454079,3.57311
1313664514079,3.54086
1313664574079,3.57869
1313664634079,3.55422
1313664694079,3.53755
1313664754079,3.59743
1313664814079,3.55579
1313664874079,3.54839
1313664934079,3.57146
1313664994079,3.55086
1313665054079,3.53941
1313665114079,3.56670
1313665174079,3.56156
1313665234089,3.52472
1313665294089,3.57188
1313665354089,3.57270
1313665414089,3.59347
1313665474089,3.56353
1313665534089,3.60483
1313665594089,3.56843
1313665654089,3.59566
1313665714089,3.53054
1313665774089,3.57216
1313665834089,3.58226
1313665894089,3.54218
1313665954089,3.52462
1313666014089,3.56263
1313666074089,3.55499
1313666134089,3.57287
1313666194089,3.55174
1313666254089,3.56326
1313666314089,3.56543
1313666374089,3.55698
1313666434089,3.55004
1313666494089,3.56761
1313666554089,3.59075
1313666614089,3.56970
1313666674089,3.54440
1313666734089,3.56576
1313666794089,3.54825
1313666854089,3.53511
1313666914089,3.60097
1313666974089,3.59836
1313667034089,3.57077
1313667094089,3.59401
1313667154089,3.57738
1313667214089,3.58292
1313667274089,3.58326
1313667334089,3.56962
1313667394089,3.57138
1313667454089,3.56808
1313667514089,3.57617
1313667574089,3.57098
1313667634089,3.58912
1313667694089,3.53559
1313667754089,3.54122
1313667814089,3.56232
1313667874089,3.56590
1313667934089,3.56092
1313667994089,3.54439
1313668054089,3.55618
1313668114089,3.52403
1313668174089,3.56919
1313668234089,3.57451
1313668294089,3.52996
1313668354089,3.55572
1313668414089,3.53616
1313668474089,3.52115
1313668534089,3.55643
1313668594089,3.57997
1313668654089,3.55284
1313668714089,3.57364
1313668774089,3.52331
1313668834099,3.53715
1313668894099,3.55905
1313668954099,3.56303
1313669014099,3.56000
1313669074099,3.53660
1313669134099,3.53098
1313669194099,3.56168
1313669254099,3.53352
1313669314099,3.53144
1313669374099,3.50284
1313669434099,3.53842
1313669494099,3.56493
1313669554099,3.54880
1313669614099,3.53882
1313669674099,3.55885
1313669734099,3.52473
1313669794099,3.54496
1313669854099,3.49385
1313669914099,3.53919
1313669974099,3.54257
1313670034099,3.52753
1313670094099,3.57294
1313670154099,3.54234
1313670214099,3.52690
1313670274099,3.52835
1313670334099,3.58146
1313670394099,3.55868
1313670454099,3.54568
1313670514099,3.54488
1313670574099,3.52965
1313670634099,3.54522
1313670694099,3.52743
1313670754099,3.58746
1313670814099,3.52614
1313670874099,3.53520
1313670934099,3.53412
1313670994099,3.53288
1313671054099,3.50820
1313671114099,3.55920
1313671174099,3.53200
1313671234099,3.54561
1313671294099,3.54693
1313671354099,3.55152
1313671414099,3.57160
1313671474099,3.55596
1313671534099,3.58484
1313671594099,3.59731
1313671654099,3.56161
1313671714099,3.53216
1313671774099,3.56496
1313671834099,3.55451
1313671894099,3.53885
1313671954099,3.57167
1313672014099,3.56692
1313672074099,3.56078
1313672134099,3.56824
1313672194099,3.54112
1313672254099,3.55259
1313672314099,3.54499
1313672374099,3.57334
1313672434109,3.53044
1313672494109,3.60209
1313672554109,3.58026
1313672614109,3.57619
1313672674109,3.56633
1313672734109,3.58831
1313672794109,3.61204
1313672854109,3.61899
1313672914109,3.60502
1313672974109,3.60246
1313673034109,3.62506
1313673094109,3.65100
1313673154109,3.62937
1313673214109,3.60267
1313673274109,3.59524
1313673334109,3.62490
1313673394109,3.58066
1313673454109,3.63324
1313673514109,3.54295
1313673574109,3.58961
1313673634109,3.56666
1313673694109,3.54949
1313673754109,3.58345
1313673814109,3.54124
1313673874109,3.58047
1313673934109,3.57798
1313673994109,3.56710
1313674054109,3.53443
1313674114109,3.54146
1313674174109,3.52697
1313674234109,3.54602
1313674294109,3.54868
1313674354109,3.56792
1313674414109,3.57001
1313674474109,3.53570
1313674534109,3.53947
1313674594109,3.55993
1313674654109,3.52861
1313674714109,3.52310
1313674774109,3.52905
1313674834109,3.55286
1313674894109,3.51897
1313674954109,3.55972
1313675014109,3.54092
1313675074109,3.55106
1313675134109,3.54310
1313675194109,3.55628
1313675254109,3.55377
1313675314109,3.52803
1313675374109,3.57352
1313675434109,3.54169
1313675494109,3.56705
1313675554109,3.53394
1313675614109,3.53659
1313675674109,3.55547
1313675734109,3.53978
1313675794109,3.56745
1313675854109,3.53913
1313675914109,3.49229
1313675974109,3.50649
1313676034119,3.52848
1313676094119,3.54322
1313676154119,3.53806
1313676214119,3.52588
1313676274119,3.56944
1313676334119,3.56026
1313676394119,3.55498
1313676454119,3.53988
1313676514119,3.52426
1313676574119,3.53081
1313676634119,3.56196
1313676694119,3.55149
1313676754119,3.53546
1313676814119,3.52021
1313676874119,3.51953
1313676934119,3.51566
1313676994119,3.52936
1313677054119,3.52156
1313677114119,3.52592
1313677174119,3.54304
1313677234119,3.51898
1313677294119,3.53105
1313677354119,3.54831
1313677414119,3.52328
1313677474119,3.53543
1313677534119,3.55901
1313677594119,3.55358
1313677654119,3.52607
1313677714119,3.55492
1313677774119,3.51513
1313677834119,3.52568
1313677894119,3.53457
1313677954119,3.53147
1313678014119,3.53263
1313678074119,3.52043
1313678134119,3.53284
1313678194119,3.55324
1313678254119,3.56228
1313678314119,3.51999
1313678374119,3.53191
1313678434119,3.53814
1313678494119,3.56844
1313678554119,3.52196
1313678614119,3.52118
1313678674119,3.54974
1313678734119,3.50908
1313678794119,3.52101
1313678854119,3.54895
1313678914119,3.54365
1313678974119,3.52598
1313679034119,3.56520
1313679094119,3.52245
1313679154119,3.52375
1313679214119,3.52708
1313679274119,3.55234
1313679334119,3.52779
1313679394119,3.54004
1313679454119,3.51303
1313679514119,3.53493
1313679574119,3.52059
1313679634130,3.55641
1313679694130,3.53700
1313679754130,3.53719
1313679814130,3.54903
1313679874130,3.57007
1313679934130,3.52726
1313679994130,3.54553
1313680054130,3.57464
1313680114130,3.52650
1313680174130,3.58122
1313680234130,3.62387
1313680294130,3.62556
1313680354130,3.61930
1313680414130,3.64115
1313680474130,3.66337
1313680534130,3.65845
1313680594130,3.63693
1313680654130,3.64715
1313680714130,3.62913
1313680774130,3.65012
1313680834130,3.60078
1313680894130,3.62444
1313680954130,3.59999
1313681014130,3.57592
1313681074130,3.60247
1313681134130,3.60910
1313681194130,3.58172
1313681254130,3.59544
1313681314130,3.55200
1313681374130,3.60013
1313681434130,3.58142
1313681494130,3.57731
1313681554130,3.59446
1313681614130,3.59673
1313681674130,3.59765
1313681734130,3.57155
1313681794130,3.58314
1313681854130,3.53445
1313681914130,3.55585
1313681974130,3.58085
1313682034130,3.57895
1313682094130,3.58870
1313682154130,3.56211
1313682214130,3.56191
1313682274130,3.59001
1313682334130,3.58442
1313682394130,3.54480
1313682454130,3.57343
1313682514130,3.54608
1313682574130,3.56779
1313682634130,3.58471
1313682694130,3.58114
1313682754130,3.57612
1313682814130,3.55416
1313682874130,3.54551
1313682934130,3.54806
1313682994130,3.55426
1313683054130,3.60055
1313683114130,3.60344
1313683174130,3.57779
1313683234141,3.57214
1313683294141,3.56727
1313683354141,3.55469
1313683414141,3.58188
1313683474141,3.59285
1313683534141,3.55747
1313683594141,3.58352
1313683654141,3.56949
1313683714141,3.57617
1313683774141,3.60275
1313683834141,3.56163
1313683894141,3.57008
1313683954141,3.57666
1313684014141,3.52619
1313684074141,3.57955
1313684134141,3.56429
1313684194141,3.56402
1313684254140,3.57128
1313684314140,3.56316
1313684374140,3.57944
1313684434141,3.57531
1313684494141,3.57194
1313684554141,3.57747
1313684614141,3.58979
1313684674141,3.57830
1313684734141,3.55647
1313684794141,3.57103
1313684854141,3.58027
1313684914141,3.59819
1313684974141,3.57187
1313685034141,3.59165
1313685094141,3.56487
1313685154141,3.58334
1313685214141,3.59679
1313685274141,3.56930
1313685334141,3.55707
1313685394141,3.57133
1313685454141,3.58286
1313685514141,3.55542
1313685574141,3.56227
1313685634140,3.57430
1313685694140,3.58366
1313685754141,3.58287
1313685814141,3.56473
1313685874141,3.55215
1313685934141,3.57344
1313685994141,3.58796
1313686054141,3.56905
1313686114141,3.58548
1313686174141,3.56965
1313686234141,3.57905
1313686294141,3.53934
1313686354141,3.56465
1313686414141,3.55711
1313686474141,3.57482
1313686534141,3.57254
1313686594141,3.60230
1313686654141,3.58384
1313686714141,3.54343
1313686774141,3.54786
1313686834151,3.58654
1313686894151,3.58343
1313686954151,3.56394
1313687014151,3.58557
1313687074151,3.58247
1313687134151,3.57952
1313687194151,3.57205
1313687254151,3.54577
1313687314151,3.55988
1313687374151,3.56504
1313687434151,3.56657
1313687494151,3.58373
1313687554151,3.56753
1313687614151,3.57735
1313687674151,3.56092
1313687734151,3.57916
1313687794151,3.58234
1313687854151,3.61568
1313687914151,3.57562
1313687974151,3.57524
1313688034151,3.56945
1313688094151,3.56525
1313688154151,3.57912
1313688214151,3.56949
1313688274151,3.59861
1313688334151,3.58422
1313688394151,3.57727
1313688454151,3.54707
1313688514151,3.56091
1313688574151,3.58847
1313688634151,3.60959
1313688694151,3.55085
1313688754151,3.55915
1313688814151,3.57241
1313688874151,3.58548
1313688934151,3.52731
1313688994151,3.54848
1313689054151,3.54413
1313689114151,3.57919
1313689174151,3.57279
1313689234151,3.54496
1313689294151,3.55371
1313689354151,3.59003
1313689414151,3.59146
1313689474151,3.57079
1313689534151,3.58183
1313689594151,3.55388
1313689654151,3.58620
1313689714151,3.56019
1313689774151,3.57611
1313689834151,3.57565
1313689894151,3.57251
1313689954151,3.55889
1313690014151,3.56645
1313690074151,3.59393
1313690134151,3.55768
1313690194151,3.58152
1313690254151,3.55637
1313690314151,3.55491
1313690374151,3.52911
1313690434163,3.56675
1313690494162,3.59080
1313690554162,3.59019
1313690614162,3.58884
1313690674162,3.58137
1313690734162,3.59649
1313690794162,3.56917
1313690854163,3.58172
1313690914163,3.57288
1313690974163,3.56864